Tracking 20942 objects as of 4-Jul-2020
HD Live streaming from Space Station
objects crossing your sky now

RADUGA 25

Track RADUGA 25 now!
RADUGA 25 is classified as:


NORAD ID: 20499
Int'l Code: 1990-016A
Perigee: 35,764.0 km
Apogee: 35,790.3 km
Inclination: 14.5 °
Period: 1,435.2 minutes
Semi major axis: 42148 km
RCS: 7.9432 m2 (large)
Launch date: February 15, 1990
Source: Commonwealth of Independent States (former USSR) (CIS)
Launch site: TYURATAM MISSILE AND SPACE COMPLEX (TTMTR)
aabbcc
Your satellite tracking list
Your tracking list is empty




NASA's NSSDC Master Catalog

Two Line Element Set (TLE):
1 20499U 90016A   20185.60323062 +.00000092 +00000-0 +00000-0 0  9999
2 20499 014.4541 351.8342 0003117 080.0477 270.0184 01.00331132111097
Source of the keplerian elements: AFSPC